Regional Weather Roundup
Issued by NWS

Home | Current Version | Previous Version | Graphics & Text | Print | Product List | Glossary On
Versions: 1 2 3 4 5 6 7 8 9 10 11 12 13 14 15 16 17 18 19 20 21 22 23 24 25 26 27 28 29 30 31 32 33 34 35 36 37 38 39 40 41 42 43 44 45 46 47 48 49 50
000
ASUS43 KBIS 241402
RWRND

NORTH DAKOTA REGIONAL WEATHER ROUNDUP
NATIONAL WEATHER SERVICE BISMARCK ND
800 AM CST FRI NOV 24 2017

NOTE: "FAIR" INDICATES FEW OR NO CLOUDS BELOW 12,000 FEET WITH NO
SIGNIFICANT WEATHER AND/OR OBSTRUCTIONS TO VISIBILITY.


NDZ001>003-009>011-017-241500-
NORTHWEST NORTH DAKOTA

CITY           SKY/WX    TMP DP  RH WIND       PRES   REMARKS
WILLISTON      CLOUDY    41  35  79 NW12      29.57R
MINOT          CLOUDY    42  36  79 W21G28    29.45R
MINOT AFB      CLOUDY    40  36  85 NW18      29.44R
$$

NDZ018>021-031>035-040>046-241500-
SOUTHWEST NORTH DAKOTA

CITY           SKY/WX    TMP DP  RH WIND       PRES   REMARKS
BISMARCK       CLOUDY    53  45  74 W14       29.42R
DICKINSON      CLOUDY    45  40  82 NW25G38   29.53R
GARRISON         N/A     40  38  93 NW21      29.47R
HETTINGER ARPT CLOUDY    45  41  86 W24G30    29.58R
$$

NDZ004>008-012>016-024-026-027-054-241500-
NORTHEAST NORTH DAKOTA

CITY           SKY/WX    TMP DP  RH WIND       PRES   REMARKS
GRAND FORKS    LGT RAIN  39  37  92 W9        29.31R
GRND FRKS AFB  LGT RAIN  40  37  90 NW9       29.32R
DEVILS LAKE    LGT RAIN  38  36  92 W15       29.38R
$$

NDZ022-023-025-028>030-036>039-047>053-241500-
SOUTHEAST NORTH DAKOTA

CITY           SKY/WX    TMP DP  RH WIND       PRES   REMARKS
FARGO          LGT RAIN  45  39  79 NW9       29.34R
JAMESTOWN      CLOUDY    47  42  83 W15       29.35F
$$





USA.gov is the U.S. government's official web portal to all federal, state and local government web resources and services.